Zurück zum Katalog

TOMORROW-S9

AktivKommunikationVLEO
NORAD 66309·PAYLOAD·🇺🇸 United States

Gestartet Nov 2, 2025 von Cape Canaveral Space Force Station

Loading…

Nächste Überflüge (nächste 24 Stunden)

TLE

AktuellSource: Space-Track

Epoche: Sep 14, 2026, 08:04 UTC

1 66309U 25248S   26257.33668183  .00002895  00000-0  14014-3 0  9992
2 66309  45.4048   3.5164 0004154 223.8071 136.2486 15.21164675 48085

Verfolge TOMORROW-S9 in Echtzeit mit AllMySat

Download on the App Store